Location: Unspecified
(0.0000°N, 0.0000°E)
Time: 14:32:13
(UTC+00:00)

Envisat - Pass Details

Date: 19 May 2019
Orbit: 764 x 766 km, 98.1° (Epoch: 24 August)

Event Time Altitude Azimuth Distance (km) Brightness Sun altitude
Rises 19:12:17 0° 177° (S) 3,228 6.0 -17.8°
Reaches altitude 10° 19:14:38 10° 182° (S) 2,300 5.3 -18.3°
Maximum altitude 19:19:33 52° 258° (WSW) 941 3.7 -19.5°
Drops below altitude 10° 19:24:28 10° 334° (NNW) 2,290 6.1 -20.6°
Sets 19:26:48 0° 339° (NNW) 3,213 6.9 -21.2°
